ROMMA est une association bénévole à but non lucratif. Votre soutien est indispensable : ADHERER à ROMMA ou FAIRE un DON

Chambon - (38, Isère)

Oisans (2460 m)   Longitude: 06° 10' 42" E   Latitude: 45° 01' 32" N Station partenaire n°803
 

Détail journalier du     <<     >>

Température Humidité Vent Dir Rafale Dir. rafale Neige 1 Neige 2
Heure (°C) (%) (km/h) (km/h) (cm) (cm)
01:00 -4.5994NNE38NNO188240
02:00 -4.5993NNE38NNE188240
03:00 -4.2994SSE28SSE189240
04:00 -4.1993SSE24SSE190240
05:00 -3.9996S24S191224
06:00 -3.99912S25SO191224
07:00 -3.69914SO25SO191240
08:00 -2.81008SO23O191240
09:00 -2.910011NE30NE190240
10:00 -2.49912N31NE189240
11:00 -1.8988N32NE189240
12:00 -1.3999N24N188240
13:00 -2.19915N25N188240
14:00 -1.0989N23N188240
15:00 -2.49916NNE35NE188240
16:00 -1.29911NNE31NNE187240
17:00 -2.410010SO23OSO187240
18:00 -3.19916SO27SO187240
19:00 -3.610023SSO36SSO187240
20:00 -3.910014SSO32SSO187240
21:00 -4.61009SSO19SSO187240
22:00 -4.81007SO14SO187240
23:00 -4.91002ESE9SO187240
minuit -4.61002N8N186240

Graphique du 15-03-2019

 

Serveur OMMA